Starlink 31473

operational
NORAD ID: 59339 Int'l Des: 2024-057 Owner: SPXS Country: US Constellation: starlink
LEOCIRCULAR

Starlink 31473について

説明を読み込み中...

リアルタイム位置

3D地球を読み込み中...

次回通過

高度履歴

Altitude vs Time

uPlot chart will show altitude changes over time

軌道要素

1 59339U 24057V 25351.84550846 .00000795 00000-0 38420-4 0 9995
2 59339 43.0013 289.1556 0000604 284.5366 75.5419 15.27567170 97325
Epoch: Dec 17, 2025 • Age: 12 hours

現在のステータス

高度 482.3 km
速度 7.63 km/s
衛星直下点 11.24°N, 112.86°W
打ち上げ日 Mar 25, 2024
運用期間 1.7 years
タイプ internet

技術仕様

分類 Payload
質量 730.00 kg
乾燥質量 700.00 kg
総質量 730.00 kg
長さ 0.30 m
直径 4.10 m
スパン 29.00 m
形状 Box + pan
製造者 SPXS
バスタイプ Starlink V2M
フェーズステータス In Orbit
所有者/国 SPXS/US

大規模コンステレーション

Loading constellations...